Yiewsley, United Kingdom

9:02 PM GMT on November 23, 2017 (GMT +0000)
Yiewsley

Weather History for 03772 - January, 2014

Change the Weather History Date:

Wednesday, January 8, 2014

  Actual Average Record
Temperature  
Mean Temperature 48 °F -  
Max Temperature 53 °F 45 °F - ()
Min Temperature 44 °F 35 °F - ()
Degree Days  
Heating Degree Days 16    
Moisture  
Dew Point 45 °F    
Average Humidity 85    
Maximum Humidity 94    
Minimum Humidity 69    
Precipitation  
Precipitation 0.04 in - - ()
Sea Level Pressure  
Sea Level Pressure 29.88 in    
Wind  
Wind Speed 10 mph ()    
Max Wind Speed 15 mph    
Max Gust Speed 23 mph    
Visibility 8.8 miles    
Events Rain    
T = Trace of Precipitation, MM = Missing Value Source: Averaged Metar Reports

Daily Weather History Graph

Daily Weather History Graph

Search for Another Location

Airport or City:

Trip Planner

Search our weather history database for the weather conditions in past years. The results will help you decide how hot, cold, wet, or windy it might be!

Date:

Astronomy

Jan. 08, 2014 Rise Set
Actual Time 8:05 AM GMT 4:11 PM GMT
Civil Twilight 7:26 AM GMT 4:51 PM GMT
Nautical Twilight 6:43 AM GMT 5:33 PM GMT
Astronomical Twilight 6:03 AM GMT 6:14 PM GMT
Moon 11:21 AM GMT (1/8) 12:27 AM GMT (1/8)
Length of Visible Light 9h 25m
Length of Day
8h 06m
First Quarter, 53% of the Moon is Illuminated
Jan 8
First Quarter
Jan 16
Full
Jan 24
Last Quarter
Jan 30
New
Feb 6
First Quarter

Hourly Weather History & Observations

Time (GMT) Temp. Windchill Dew Point Humidity Pressure Visibility Wind Dir Wind Speed Gust Speed Precip Events Conditions
12:00 AM 46 °F - 42 °F 82% 29.78 in 22 mi SSW 12.7 mph - -   Mostly Cloudy
12:20 AM 46.4 °F 41.5 °F 42.8 °F 87% 29.80 in - SW 10.4 mph - N/A   Clear
12:50 AM 46.4 °F 41.9 °F 42.8 °F 87% 29.80 in - SW 9.2 mph - N/A   Clear
1:00 AM 46 °F - 43 °F 84% 29.81 in 16 mi SSW 11.5 mph - -   Partly Cloudy
1:20 AM 46.4 °F 41.5 °F 42.8 °F 87% 29.80 in 6.2 mi SSW 10.4 mph - N/A   Partly Cloudy
1:50 AM 46.4 °F 41.5 °F 44.6 °F 93% 29.83 in 6.2 mi SSW 10.4 mph - N/A   Unknown
2:00 AM 46 °F - 44 °F 88% 29.84 in 14 mi SSW 11.5 mph - -  
2:20 AM 46.4 °F 41.5 °F 42.8 °F 87% 29.83 in 6.2 mi SSW 10.4 mph - N/A   Unknown
2:50 AM 46.4 °F 42.4 °F 42.8 °F 87% 29.86 in 6.2 mi SSW 8.1 mph - N/A   Partly Cloudy
3:00 AM 46 °F - 43 °F 85% 29.86 in 15 mi SSW 10.4 mph - -  
3:20 AM 44.6 °F 40.2 °F 42.8 °F 93% 29.86 in 6.2 mi SSW 8.1 mph - N/A   Partly Cloudy
3:50 AM 44.6 °F 41.4 °F 42.8 °F 93% 29.89 in 6.2 mi South 5.8 mph - N/A   Partly Cloudy
4:00 AM 44 °F - 42 °F 90% 29.88 in 13 mi South 4.6 mph - -   Scattered Clouds
4:20 AM 44.6 °F 41.4 °F 42.8 °F 93% 29.89 in - South 5.8 mph - N/A   Clear
4:50 AM 46.4 °F 42.9 °F 42.8 °F 87% 29.89 in 6.2 mi SSW 6.9 mph - N/A   Partly Cloudy
5:00 AM 45 °F - 43 °F 90% 29.89 in 12 mi SSW 8.1 mph - -  
5:20 AM 46.4 °F 42.4 °F 42.8 °F 87% 29.89 in - SW 8.1 mph - N/A   Clear
5:50 AM 46.4 °F 42.4 °F 42.8 °F 87% 29.89 in - SSW 8.1 mph - N/A   Clear
6:00 AM 46 °F - 43 °F 85% 29.91 in 14 mi SW 10.4 mph - -  
6:20 AM 46.4 °F 42.4 °F 42.8 °F 87% 29.89 in - SSW 8.1 mph - N/A   Clear
6:50 AM 46.4 °F 41.1 °F 42.8 °F 87% 29.92 in - SSW 11.5 mph - N/A   Clear
7:00 AM 47 °F - 44 °F 84% 29.92 in 14 mi SSW 12.7 mph - -  
7:20 AM 46.4 °F 40.1 °F 42.8 °F 87% 29.92 in - SW 15.0 mph - N/A   Clear
7:50 AM 46.4 °F 41.1 °F 42.8 °F 87% 29.92 in 6.2 mi SSW 11.5 mph - N/A   Partly Cloudy
8:00 AM 47 °F - 43 °F 82% 29.94 in 13 mi SSW 12.7 mph - -  
8:20 AM 46.4 °F 41.5 °F 42.8 °F 87% 29.95 in - SSW 10.4 mph - N/A   Clear
8:50 AM 48.2 °F - 44.6 °F 87% 29.95 in - SSW 11.5 mph - N/A   Clear
9:00 AM 48 °F - 44 °F 82% 29.96 in 14 mi SSW 12.7 mph - -  
9:20 AM 48.2 °F - 44.6 °F 87% 29.98 in - SW 12.7 mph - N/A   Clear
9:50 AM 50.0 °F - 44.6 °F 82% 29.98 in 6.2 mi SW 10.4 mph - N/A   Partly Cloudy
10:00 AM 49 °F - 45 °F 81% 29.99 in 14 mi SW 10.4 mph - -   Scattered Clouds
10:20 AM 50.0 °F - 46.4 °F 87% 29.98 in 6.2 mi SW 12.7 mph - N/A   Scattered Clouds
10:50 AM 51.8 °F - 46.4 °F 82% 29.98 in 6.2 mi SW 12.7 mph - N/A   Partly Cloudy
11:00 AM 52 °F - 46 °F 74% 29.99 in 14 mi SSW 13.8 mph - -   Scattered Clouds
11:20 AM 51.8 °F - 46.4 °F 82% 29.98 in 6.2 mi SW 12.7 mph - N/A   Partly Cloudy
11:50 AM 51.8 °F - 44.6 °F 76% 29.98 in 6.2 mi SW 13.8 mph - N/A   Scattered Clouds
12:00 PM 53 °F - 46 °F 69% 29.98 in 17 mi SSW 13.8 mph - -   Scattered Clouds
12:20 PM 51.8 °F - 44.6 °F 76% 29.98 in 6.2 mi SW 15.0 mph - N/A   Scattered Clouds
12:50 PM 51.8 °F - 44.6 °F 76% 29.98 in 6.2 mi SW 11.5 mph - N/A   Partly Cloudy
1:00 PM 52 °F - 45 °F 70% 29.97 in 15 mi SSW 12.7 mph - -  
1:20 PM 50.0 °F - 46.4 °F 87% 29.95 in 6.2 mi SW 9.2 mph - N/A   Scattered Clouds
1:50 PM 51.8 °F - 46.4 °F 82% 29.95 in 6.2 mi SSW 9.2 mph - N/A   Partly Cloudy
2:00 PM 51 °F - 46 °F 76% 29.95 in 15 mi South 8.1 mph - -   Mostly Cloudy
2:20 PM 51.8 °F - 46.4 °F 82% 29.95 in 6.2 mi SSW 10.4 mph - N/A   Partly Cloudy
2:50 PM 51.8 °F - 44.6 °F 76% 29.95 in 6.2 mi SSW 10.4 mph - N/A   Partly Cloudy
3:00 PM 51 °F - 45 °F 73% 29.95 in 16 mi South 9.2 mph - -   Scattered Clouds
3:20 PM 50.0 °F - 44.6 °F 82% 29.92 in 6.2 mi South 10.4 mph 23.0 mph N/A   Mostly Cloudy
3:50 PM 50.0 °F - 44.6 °F 82% 29.92 in 6.2 mi South 8.1 mph - N/A   Mostly Cloudy
4:00 PM 50 °F - 45 °F 78% 29.92 in 17 mi SSE 8.1 mph - -   Mostly Cloudy
4:20 PM 50.0 °F - 44.6 °F 82% 29.92 in 6.2 mi SSE 10.4 mph - N/A   Scattered Clouds
4:50 PM 50.0 °F - 46.4 °F 87% 29.89 in 6.2 mi SSE 8.1 mph - N/A Rain Light Rain
5:00 PM 49 °F - 46 °F 85% 29.90 in 7 mi SSE 10.4 mph - - Rain Light Rain Showers
5:20 PM 48.2 °F - 46.4 °F 93% 29.86 in 6.2 mi SE 9.2 mph - N/A   Scattered Clouds
5:50 PM 50.0 °F - 46.4 °F 87% 29.86 in 6.2 mi SSE 9.2 mph - N/A   Partly Cloudy
6:00 PM 49 °F - 46 °F 86% 29.87 in 12 mi SSE 10.4 mph - - Rain Rain
6:20 PM 50.0 °F - 46.4 °F 87% 29.86 in 6.2 mi SSE 10.4 mph - N/A   Scattered Clouds
6:50 PM 50.0 °F - 46.4 °F 87% 29.83 in 6.2 mi SSE 10.4 mph - N/A   Partly Cloudy
7:00 PM 49 °F - 46 °F 84% 29.85 in 12 mi SSE 10.4 mph - - Rain Light Rain Showers
7:20 PM 50.0 °F - 46.4 °F 87% 29.83 in 6.2 mi SSE 10.4 mph - N/A   Scattered Clouds
7:50 PM 50.0 °F - 46.4 °F 87% 29.83 in 6.2 mi SSE 11.5 mph - N/A   Scattered Clouds
8:00 PM 49 °F - 46 °F 87% 29.82 in 12 mi SSE 10.4 mph - - Rain Rain
8:20 PM 50.0 °F - 46.4 °F 87% 29.80 in 5.6 mi SSE 11.5 mph - N/A Rain Light Rain
8:50 PM 50.0 °F - 48.2 °F 94% 29.77 in 6.2 mi South 10.4 mph - N/A   Mostly Cloudy
9:00 PM 50 °F - 48 °F 89% 29.79 in 10 mi SSE 9.2 mph - - Rain Rain
9:20 PM 51.8 °F - 48.2 °F 88% 29.77 in 6.2 mi South 10.4 mph - N/A   Mostly Cloudy
9:50 PM 51.8 °F - 50.0 °F 94% 29.74 in 4.3 mi South 12.7 mph - N/A Rain Light Rain
10:00 PM 52 °F - 50 °F 89% 29.76 in 4 mi South 11.5 mph - - Rain Light Rain Showers
10:20 PM 51.8 °F - 50.0 °F 94% 29.74 in 3.7 mi South 12.7 mph - N/A Rain Light Rain
10:50 PM 51.8 °F - 50.0 °F 94% 29.71 in 6.2 mi South 12.7 mph - N/A Rain Light Rain
11:00 PM 53 °F - 51 °F 88% 29.73 in 12 mi South 11.5 mph - - Rain Light Rain Showers
11:20 PM 53.6 °F - 50.0 °F 88% 29.71 in 6.2 mi SSW 11.5 mph - N/A Rain Light Rain
11:50 PM 53.6 °F - 50.0 °F 88% 29.68 in - SSW 13.8 mph - N/A Rain Light Rain